This is the latest recevied weather packets stored in our database for station/object LA5PPA-1. If no packets are shown the sender has not sent any weather packets the latest 10 day(s).
| Time | Temp. | Humidity | Pressure | Rain* | Wind** | Luminosity | Snow |
|---|---|---|---|---|---|---|---|
| 1777825321 | 8.33° C | 36% | 1011.7 hPa | 0 mm | - | - | - |
| 1777825021 | 8.89° C | 36% | 1011.8 hPa | 0 mm | - | - | - |
| 1777824782 | 8.33° C | 36% | 1011.8 hPa | 0 mm | - | - | - |
| 1777824721 | 8.33° C | 36% | 1011.7 hPa | 0 mm | - | - | - |
| 1777824421 | 8.89° C | 37% | 1011.8 hPa | 0 mm | - | - | - |
| 1777824121 | 8.33° C | 37% | 1011.8 hPa | 0 mm | - | - | - |
| 1777823821 | 8.89° C | 34% | 1011.9 hPa | 0 mm | - | - | - |
| 1777823521 | 8.89° C | 33% | 1011.8 hPa | 0 mm | - | - | - |
| 1777823462 | 8.89° C | 34% | 1012 hPa | 0 mm | - | - | - |
| 1777823221 | 8.89° C | 33% | 1012 hPa | 0 mm | - | - | - |
| 1777822921 | 9.44° C | 32% | 1012 hPa | 0 mm | - | - | - |
| 1777822802 | 9.44° C | 34% | 1012.1 hPa | 0 mm | - | - | - |
| 1777822621 | 9.44° C | 33% | 1012.1 hPa | 0 mm | - | - | - |
| 1777822321 | 9.44° C | 31% | 1012.1 hPa | 0 mm | - | - | - |
| 1777822142 | 9.44° C | 31% | 1012 hPa | 0 mm | - | - | - |
| 1777822021 | 9.44° C | 32% | 1012.1 hPa | 0 mm | - | - | - |
| 1777821721 | 10° C | 28% | 1012.1 hPa | 0 mm | - | - | - |
| 1777821482 | 10° C | 31% | 1012.1 hPa | 0 mm | - | - | - |
| 1777821421 | 10° C | 29% | 1012.1 hPa | 0 mm | - | - | - |
| 1777821121 | 10° C | 25% | 1012.2 hPa | 0 mm | - | - | - |
| 1777820821 | 10° C | 23% | 1012.1 hPa | 0 mm | - | - | - |
| 1777820521 | 10.56° C | 24% | 1012.1 hPa | 0 mm | - | - | - |
| 1777820221 | 10.56° C | 22% | 1012.2 hPa | 0 mm | - | - | - |
| 1777820162 | 10.56° C | 21% | 1012.2 hPa | 0 mm | - | - | - |
| 1777819921 | 10.56° C | 22% | 1012.2 hPa | 0 mm | - | - | - |
* Rain latest hour (hover to see other rain measurements)
** Current wind speed in m/s (hover to see current wind gust speed)